Location: Newark
(45.5867°N, 8.8515°E)
Time: 16:23:53
(UTC+00:00)

ISS - Visible Passes

Search period start: 11 December 2019 00:00
Search period end: 21 December 2019 00:00
Orbit: 411 x 421 km, 51.6° (Epoch: 12 December)

Date Brightness Start Highest point End Pass type
(mag) Time Alt. Az. Time Alt. Az. Time Alt. Az.
11 Dec -2.3 16:37:53 10° WNW 16:41:02 39° SW 16:44:12 10° SSE visible
13 Dec -0.6 16:38:16 10° W 16:40:27 16° SW 16:42:39 10° S visible
20 Dec -0.6 06:07:35 10° S 06:09:49 17° SE 06:12:03 10° E visible
